Regional Weather Roundup
Issued by NWS Goodland, KS

Home | Current Version | Previous Version | Graphics & Text | Print | Product List | Glossary Off
Versions: 1 2 3 4 5 6 7 8 9 10 11 12 13 14 15 16 17 18 19 20 21 22 23 24 25 26 27 28 29 30 31 32 33 34 35 36 37 38 39 40 41 42 43 44 45 46 47 48 49 50

000
ASUS43 KGLD 260359
RWRGLD

GOODLAND FORECAST AREA HOURLY WEATHER ROUNDUP
NATIONAL WEATHER SERVICE GOODLAND KS
1000 PM MDT TUE JUL 25 2017

...OFFICIAL OBSERVATIONS...

CITY           SKY/WX    TMP DP  RH WIND       PRES   REMARKS
GOODLAND KS    CLOUDY    83  63  50 W7        30.00R
HILL CITY KS   PTCLDY    89  66  46 S17G23    29.92R
IMPERIAL NEB   TSTM      74  63  68 NW9G23    29.98R
MCCOOK NEB     CLOUDY    88  65  46 S12       29.89R
AKRON CO       MOCLDY    72  59  63 W14       30.09R
BURLINGTON CO  MOCLDY    77  60  55 NW12      30.07R
LIMON CO       CLOUDY    65  62  90 NW15      30.15F
$$

...UNOFFICIAL OBSERVATIONS...

CITY           SKY/WX    TMP DP  RH WIND       PRES   REMARKS
LENORA KS        N/A     86  32  14 MISG        N/A
NORTON KS      CLEAR     88  61  40 SE12G17   29.92R
SHARON SPRINGS   N/A     78  64  62 SE7         N/A
TRENTON NEB      N/A     88  32  13 SW7         N/A
KIT CARSON CO    N/A     75  62  63 MISG        N/A
YUMA CO        FAIR      72  57  60 W6        30.03R
$$



USA.gov is the U.S. government's official web portal to all federal, state and local government web resources and services.